Location: Downe
(51.3167°N, 0.0500°E)
Time: 03:12:22
(UTC+00:00)

SL-16 R/B - Pass Details

Date: 17 November 2019
Orbit: 842 x 846 km, 71.0° (Epoch: 05 December)

Event Time Altitude Azimuth Distance (km) Brightness Sun altitude
Exits shadow 06:34:19 - 305° (NW) 2,656 4.2 -7.2°
Reaches altitude 10° 06:35:03 10° 299° (WNW) 2,477 4.0 -7.1°
Maximum altitude 06:38:29 17° 262° (W) 2,039 3.7 -6.6°
Drops below altitude 10° 06:41:55 10° 224° (SW) 2,465 4.4 -6.1°
Sets 06:45:13 0° 205° (SSW) 3,394 5.3 -5.7°
